Tracking 25693 objects as of 30-Jun-2022
HD Live streaming from Space Station
objects crossing your sky now

STARLINK-2407

Track STARLINK-2407 now!
10-day predictions
STARLINK-2407 is classified as:


NORAD ID: 47822
Int'l Code: 2021-018AM
Perigee: 553.1 km
Apogee: 555.7 km
Inclination: 53.1 °
Period: 95.6 minutes
Semi major axis: 6925 km
RCS: Unknown
Launch date: March 11, 2021
Source: United States (US)
Launch site: AIR FORCE EASTERN TEST RANGE (AFETR)
aabbcc
Your satellite tracking list
Your tracking list is empty




NASA's NSSDC Master Catalog

Two Line Element Set (TLE):
1 47822U 21018AM  22181.41552834  .00000606  00000-0  59578-4 0  9991
2 47822  53.0535 194.2478 0001902  50.5683 309.5474 15.06389546 73245
Source of the keplerian elements: AFSPC